Location: Praha
(50.0830°N, 14.4670°E)
Time: 01:47:53
(UTC+01:00)

ISS - Pass Details

Date: 16 November 2025
Orbit: 414 x 420 km, 51.6° (Epoch: 18 November)

Event Time Altitude Azimuth Distance (km) Brightness Sun altitude
Rises 17:23:35 0° 217° (SW) 2,342 1.0 -10.8°
Reaches altitude 10° 17:25:51 10° 205° (SSW) 1,483 -0.4 -11.1°
Maximum altitude 17:28:42 27° 145° (SE) 840 -2.4 -11.6°
Enters shadow 17:30:27 17° 100° (E) 1,125 -2.1 -11.8°
